980  
ASUS45 KGGW 261115  
RWRGGW  
HOURLY REGIONAL WEATHER ROUNDUP FOR NORTHEAST MONTANA  
NATIONAL WEATHER SERVICE GLASGOW MONTANA  
500 AM MDT WED APR 26 2017  
 
NOTE: "FAIR" INDICATES FEW OR NO CLOUDS BELOW 12,000 FEET WITH NO  
SIGNIFICANT WEATHER AND/OR S TO VISISBILITY.  
 
NORTHEAST MONTANA  
 
 
CITY SKY/WX TMP DP RH WIND PRES REMARKS
 
GLASGOW CLOUDY 34 24 67 SE9 29.89S  
PLENTYWOOD N/A 27 23 85 E8 N/A  
WOLF POINT CLOUDY 34 26 72 E6 29.93F  
JORDAN N/A 31 25 78 S10 29.87S  
WINNETT N/A 33 32 96 E6 N/A  
SIDNEY CLEAR 25 22 88 NE6 29.94F  
GLENDIVE CLOUDY 32 28 85 N3 29.91F  
MALTA N/A 36 30 79 SE3 N/A  
 
FORT PECK REPORTS  
 
 
CITY SKY/WX TMP DP RH WIND PRES REMARKS
 
FORT PECK N/A 34 26 72 SE14 N/A  
THE PINES N/A 36 27 69 CALM N/A  
 
SOUTHEAST MONTANA  
 
 
CITY SKY/WX TMP DP RH WIND PRES REMARKS
 
BILLINGS CLOUDY 34 29 82 SE5 29.82F  
MILES CITY CLOUDY 35 25 66 S3 29.88F  
BAKER CLOUDY 30 24 78 CALM 29.88F  
LIVINGSTON MIX PCPN 35 34 96 CALM 29.76F  
 
CENTRAL MONTANA  
 
 
CITY SKY/WX TMP DP RH WIND PRES REMARKS
 
HAVRE CLOUDY 38 37 97 E5 29.79S  
LEWISTOWN CLEAR 30 29 96 E6 29.77S  
GREAT FALLS CLEAR 33 31 92 E7 29.75F  
CUT BANK CLOUDY 32 32 100 E7 29.73S FOG  
HELENA CLOUDY 37 34 89 SE7 29.76S  
BUTTE PTCLDY 35 30 82 CALM 29.76S  
BOZEMAN CLOUDY 40 38 93 CALM 29.77S  
 
WESTERN MONTANA  
 
 
CITY SKY/WX TMP DP RH WIND PRES REMARKS
 
MISSOULA LGT RAIN 42 39 89 NE3 29.77F  
KALISPELL NOT AVBL  
 
NORTH DAKOTA  
 
 
CITY SKY/WX TMP DP RH WIND PRES REMARKS
 
WILLISTON CLEAR 24 19 81 N6 29.96F  
DICKINSON CLOUDY 30 23 75 N6 29.87F  
MINOT PTCLDY 27 20 75 NW9 29.93F  
BISMARCK CLOUDY 32 23 69 N13 29.88R  
 
SOUTHERN SASKATCHEWAN  
 
 
CITY SKY/WX TMP DP RH WIND PRES REMARKS
 
REGINA PTCLDY 27 16 63 E15 29.99F  
MOOSE JAW CLOUDY 30 23 74 SE13 29.96F  
ESTEVAN PTCLDY 21 18 86 NE7 29.98F  
SWIFT CURRENT CLOUDY 30 28 93 SE12 29.84F  
 
 
 
CLICK HERE TO GO TO PREVIOUS BULLETINS.

The Nexlab MT Page Main Text Page